Date String (YYYY-MM-DD hh:mm:ss) UTC,Instrument flags,Ambient pressure (hPa),Sample flow (lpm),Bypass flow (lpm),Sample temperature (°C),Ambient temperature (°C),ASC tube jacket temperature (°C),LED temperature (°C),Box temperature (°C),Sample RH (%),Span deviation,Mass concentration (μg/m³),Mass concentration (μg/m³),Mass concentration (μg/m³)
DateTimeUTC,F1_M11,P_M11,Q1_M11,Q2_M11,T1_M11,T2_M11,T3_M11,T4_M11,T5_M11,U1_M11,ZSPAN_M11,X0_M11,X2_M11,X1_M11
2023-05-03 21:00:00,,0825.9,4.99,0.00,30.2,29.0,00.0,38.5,31.9,09.9,0000.0,0013.15,0004.86,0003.43
2023-05-03 21:01:00,,0825.9,5.00,0.00,30.3,29.1,00.0,38.5,31.9,09.7,0000.0,0013.97,0004.86,0003.42
2023-05-03 21:02:00,,0825.9,5.00,0.00,30.3,28.3,00.0,38.5,31.8,09.9,0000.0,0013.49,0004.92,0003.42
2023-05-03 21:03:00,,0825.9,5.01,0.00,30.2,26.8,00.0,38.4,31.6,09.6,0000.0,0013.55,0004.95,0003.41
2023-05-03 21:04:00,,0825.9,5.01,0.00,30.2,26.6,00.0,38.4,31.5,09.5,0000.0,0013.75,0004.95,0003.41
2023-05-03 21:05:00,,0825.9,4.99,0.00,30.1,26.8,00.0,38.4,31.4,09.6,0000.0,0013.76,0004.98,0003.40
2023-05-03 21:06:00,,0825.9,5.00,0.00,30.1,27.1,00.0,38.4,31.4,10.1,0000.0,0013.63,0004.99,0003.40
2023-05-03 21:07:00,,0825.9,5.01,0.00,30.1,27.5,00.0,38.4,31.5,10.0,0000.0,0013.59,0005.02,0003.40
2023-05-03 21:08:00,,0825.9,5.01,0.00,30.1,27.8,00.0,38.4,31.6,09.7,0000.0,0013.62,0005.07,0003.41
2023-05-03 21:09:00,,0825.9,4.99,0.00,30.1,28.0,00.0,38.4,31.6,10.0,0000.0,0013.51,0005.12,0003.42
2023-05-03 21:10:00,,0825.9,5.00,0.00,30.1,28.3,00.0,38.4,31.7,09.8,0000.0,0014.20,0005.16,0003.42
2023-05-03 21:11:00,,0825.9,5.00,0.00,30.1,28.5,00.0,38.4,31.7,09.6,0000.0,0015.43,0005.22,0003.42
2023-05-03 21:12:00,,0825.9,5.00,0.00,30.2,28.6,00.0,38.5,31.8,09.6,0000.0,0015.08,0005.18,0003.43
2023-05-03 21:13:00,,0825.9,5.01,0.00,30.2,28.8,00.0,38.5,31.8,09.7,0000.0,0015.08,0005.13,0003.42
2023-05-03 21:14:00,,0825.9,5.01,0.00,30.2,28.9,00.0,38.5,31.8,09.6,0000.0,0015.86,0005.11,0003.41
2023-05-03 21:15:00,,0825.9,5.01,0.00,30.3,29.0,00.0,38.5,31.9,09.7,0000.0,0015.70,0005.06,0003.42
2023-05-03 21:16:00,,0825.9,5.00,0.00,30.3,28.8,00.0,38.5,31.9,09.7,0000.0,0016.51,0005.09,0003.43
2023-05-03 21:17:00,,0825.9,4.99,0.00,30.3,27.1,00.0,38.4,31.7,09.5,0000.0,0016.25,0005.10,0003.44
2023-05-03 21:18:00,,0825.8,5.00,0.00,30.2,25.6,00.0,38.3,31.4,09.5,0000.0,0016.88,0005.12,0003.43
2023-05-03 21:19:00,,0825.8,5.02,0.00,30.1,25.7,00.0,38.3,31.3,09.6,0000.0,0016.94,0005.08,0003.41
2023-05-03 21:20:00,,0825.8,5.00,0.00,30.0,26.0,00.0,38.3,31.2,09.7,0000.0,0016.33,0004.98,0003.38
2023-05-03 21:21:00,,0825.8,5.00,0.00,29.9,26.4,00.0,38.3,31.2,09.6,0000.0,0015.46,0004.93,0003.37
2023-05-03 21:22:00,,0825.8,5.00,0.00,29.9,26.8,00.0,38.3,31.3,09.6,0000.0,0014.77,0004.89,0003.35
2023-05-03 21:23:00,,0825.8,4.99,0.00,29.9,27.2,00.0,38.3,31.4,09.7,0000.0,0015.07,0004.87,0003.33
2023-05-03 21:24:00,,0825.9,5.00,0.00,29.9,27.6,00.0,38.3,31.4,10.0,0000.0,0015.70,0004.88,0003.32
2023-05-03 21:25:00,,0825.8,5.01,0.00,30.0,27.9,00.0,38.3,31.5,09.5,0000.0,0014.96,0004.86,0003.30
2023-05-03 21:26:00,,0825.8,4.99,0.00,30.0,28.1,00.0,38.3,31.5,09.5,0000.0,0015.05,0004.88,0003.29
2023-05-03 21:27:00,,0825.8,5.00,0.00,30.0,28.3,00.0,38.3,31.6,09.6,0000.0,0014.35,0004.82,0003.27
2023-05-03 21:28:00,,0825.8,5.00,0.00,30.0,28.5,00.0,38.4,31.7,09.6,0000.0,0014.33,0004.80,0003.26
2023-05-03 21:29:00,,0825.7,5.00,0.00,30.1,28.7,00.0,38.4,31.7,10.1,0000.0,0013.76,0004.79,0003.25
2023-05-03 21:30:00,,0825.8,5.00,0.00,30.1,28.8,00.0,38.4,31.8,10.3,0000.0,0013.38,0004.75,0003.25
2023-05-03 21:31:00,,0825.7,5.00,0.00,30.2,28.9,00.0,38.4,31.8,09.7,0000.0,0013.44,0004.79,0003.25
2023-05-03 21:32:00,,0825.7,5.01,0.00,30.2,29.0,00.0,38.4,31.8,09.5,0000.0,0013.79,0004.79,0003.25
2023-05-03 21:33:00,,0825.7,4.99,0.00,30.2,28.2,00.0,38.4,31.8,09.8,0000.0,0014.26,0004.78,0003.26
2023-05-03 21:34:00,,0825.7,5.00,0.00,30.1,26.2,00.0,38.3,31.4,10.3,0000.0,0013.95,0004.83,0003.26
2023-05-03 21:35:00,,0825.6,5.01,0.00,30.0,25.5,00.0,38.2,31.3,10.0,0000.0,0013.40,0004.83,0003.28
2023-05-03 21:36:00,,0825.6,5.01,0.00,29.9,25.8,00.0,38.2,31.1,09.9,0000.0,0013.38,0004.87,0003.31
2023-05-03 21:37:00,,0825.6,5.00,0.00,29.9,26.1,00.0,38.2,31.1,10.0,0000.0,0013.42,0004.92,0003.32
2023-05-03 21:38:00,,0825.6,4.99,0.00,29.8,26.6,00.0,38.2,31.2,09.8,0000.0,0013.23,0004.95,0003.32
2023-05-03 21:39:00,,0825.5,5.00,0.00,29.8,27.0,00.0,38.2,31.2,10.1,0000.0,0013.10,0004.95,0003.32
2023-05-03 21:40:00,,0825.6,5.00,0.00,29.8,27.4,00.0,38.2,31.3,09.9,0000.0,0012.83,0004.97,0003.34
2023-05-03 21:41:00,,0825.5,4.99,0.00,29.9,27.7,00.0,38.2,31.4,09.7,0000.0,0012.70,0004.93,0003.35
2023-05-03 21:42:00,,0825.5,4.98,0.00,29.9,28.0,00.0,38.2,31.5,09.7,0000.0,0012.82,0004.87,0003.34
2023-05-03 21:43:00,,0825.4,5.01,0.00,29.9,28.2,00.0,38.2,31.5,09.7,0000.0,0013.11,0004.84,0003.34
2023-05-03 21:44:00,,0825.4,5.01,0.00,29.9,28.4,00.0,38.2,31.6,10.0,0000.0,0012.39,0004.88,0003.33
2023-05-03 21:45:00,,0825.4,5.00,0.00,30.0,28.5,00.0,38.3,31.6,10.2,0000.0,0012.88,0004.96,0003.35
2023-05-03 21:46:00,,0825.4,4.99,0.00,30.0,28.7,00.0,38.3,31.7,10.2,0000.0,0013.15,0004.95,0003.33
2023-05-03 21:47:00,,0825.4,5.00,0.00,30.1,28.8,00.0,38.3,31.7,09.9,0000.0,0013.57,0004.93,0003.31
2023-05-03 21:48:00,,0825.5,5.00,0.00,30.1,28.9,00.0,38.3,31.8,09.7,0000.0,0013.74,0004.89,0003.31
2023-05-03 21:49:00,,0825.5,5.00,0.00,30.1,29.0,00.0,38.4,31.8,09.7,0000.0,0014.40,0004.87,0003.30
2023-05-03 21:50:00,,0825.4,4.98,0.00,30.2,28.3,00.0,38.3,31.8,09.7,0000.0,0015.18,0004.90,0003.30
2023-05-03 21:51:00,,0825.4,5.00,0.00,30.1,26.2,00.0,38.3,31.3,10.0,0000.0,0015.29,0004.90,0003.28
2023-05-03 21:52:00,,0825.3,5.01,0.00,30.0,25.5,00.0,38.2,31.1,09.7,0000.0,0015.30,0004.92,0003.29
2023-05-03 21:53:00,,0825.3,5.01,0.00,29.9,25.7,00.0,38.2,31.1,10.0,0000.0,0014.97,0004.93,0003.30
2023-05-03 21:54:00,,0825.3,5.01,0.00,29.8,26.1,00.0,38.2,31.0,10.4,0000.0,0014.26,0004.96,0003.30
2023-05-03 21:55:00,,0825.3,5.00,0.00,29.8,26.5,00.0,38.2,31.1,10.0,0000.0,0014.31,0004.97,0003.30
2023-05-03 21:56:00,,0825.3,5.00,0.00,29.8,27.0,00.0,38.2,31.2,10.4,0000.0,0013.31,0004.84,0003.30
2023-05-03 21:57:00,,0825.4,4.99,0.00,29.8,27.3,00.0,38.2,31.3,09.9,0000.0,0013.63,0004.85,0003.30
2023-05-03 21:58:00,,0825.4,5.00,0.00,29.8,27.6,00.0,38.2,31.3,09.5,0000.0,0013.67,0004.91,0003.32
2023-05-03 21:59:00,,0825.4,5.01,0.00,29.8,27.9,00.0,38.2,31.4,09.5,0000.0,0013.35,0004.93,0003.34
